Flag for Canada Weather past 2 weeks in Prince Albert, Saskatchewan, Canada

Now
55 °F

Partly cloudy.


Feels Like: 55 °F
Forecast: 51 / 66 °F
Wind: 3 mph from South

Location: Prince Albert

Current Time: Jul 25, 2014 at 3:20:50 AM

Latest Report: Jul 25, 2014 at 3:00 AM


Visibility: 15 mi

Pressure: 29.61 "Hg

Humidity: 94%

Dew point: 54 °F

Location of Prince AlbertLocation

Historic Weather in Prince Albert — Graph

°F

Prince Albert temperature yesterday

Maximum temperature yesterday: 73 °F (at 5:00 PM)
Minimum temperature yesterday: 59 °F (at 11:00 PM)
Average temperature yesterday: 65 °F

Past Weeks' High & Low Weather Summary

 TemperatureHumidityPressure
High81 °F (Jul 16, 2:00 PM)100% (Jul 10, 6:00 AM)30.41 "Hg (Jul 10, 6:00 AM)
Low43 °F (Jul 14, 3:00 AM)33% (Jul 12, 7:00 PM)29.49 "Hg (Jul 19, 8:00 PM)
Average64 °F74%29.91 "Hg
* Reported Jul 10 2:00 AM — Jul 25 2:00 AM, Prince Albert, Weather by CustomWeather, © 2014

Note: Actual official high and low records may vary slightly from our data, if they occured in-between our weather recording intervals... More about our weather records

Advertising

Prince Albert weather history for previous 24 hours

 ConditionsComfort  
Time TempWeatherWind HumidityBarometerVisibility
2:00 AM
Jul 25
57 °FLow clouds.10 mph100%29.61 "Hg15 mi
1:00 AM59 °FLow clouds.9 mph100%29.60 "Hg10 mi
12:00 AM61 °FMostly cloudy.6 mph94%29.61 "Hg10 mi
11:53 PM
Jul 24
59 °FMostly cloudy.5 mph100%29.61 "Hg10 mi
11:00 PM59 °FSprinkles. Low clouds.No wind100%29.58 "Hg10 mi
10:00 PM61 °FThunderstorms. Fog.7 mph94%29.64 "Hg2 mi
9:00 PM61 °FThunderstorms. Fog.13 mph94%29.65 "Hg4 mi
8:53 PM61 °FThunderstorms. Fog.17 mph94%29.65 "Hg3 mi
8:00 PM70 °FThunderstorms. Overcast.12 mph88%29.62 "Hg15 mi
7:48 PM70 °FThunderstorms. Overcast.12 mph88%29.63 "Hg15 mi
7:00 PM72 °FMostly cloudy.8 mph83%29.62 "Hg15 mi
6:00 PM72 °FMostly cloudy.10 mph83%29.65 "Hg15 mi
5:00 PM73 °FBroken clouds.9 mph78%29.67 "Hg15 mi
4:00 PM72 °FPartly sunny.6 mph78%29.71 "Hg15 mi
3:00 PM70 °FBroken clouds.7 mph78%29.75 "Hg15 mi
2:00 PM66 °FSprinkles. Broken clouds.14 mph94%29.76 "Hg15 mi
1:00 PM64 °FSprinkles. Overcast.10 mph94%29.78 "Hg10 mi
12:00 PM68 °FOvercast.6 mph83%29.80 "Hg15 mi
11:00 AM68 °FMostly cloudy.8 mph83%29.78 "Hg15 mi
10:00 AM66 °FMostly cloudy.13 mph83%29.77 "Hg15 mi
9:00 AM63 °FCloudy.15 mph94%29.78 "Hg15 mi
8:00 AM61 °FScattered showers. Mostly cloudy.12 mph94%29.85 "Hg15 mi
7:04 AM63 °FSprinkles. Mostly cloudy.7 mph88%29.88 "Hg15 mi
6:56 AM63 °FScattered showers. More clouds than sun.6 mph88%29.88 "Hg15 mi
6:00 AM63 °FThunderstorms. More clouds than sun.6 mph88%29.88 "Hg15 mi
5:00 AM61 °FPassing clouds.6 mph94%29.90 "Hg15 mi
4:00 AM61 °FPassing clouds.6 mph88%29.93 "Hg20 mi
3:00 AM61 °FPassing clouds.7 mph88%29.93 "Hg15 mi
Weather by CustomWeather, © 2014

See weather overviewHow to use our weather pages